Regional Weather Roundup
Issued by NWS Bismarck, ND

Home | Current Version | Previous Version | Text Only | Print | Product List | Glossary On
Versions: 1 2 3 4 5 6 7 8 9 10 11 12 13 14 15 16 17 18 19 20 21 22 23 24 25 26 27 28 29 30 31 32 33 34 35 36 37 38 39 40 41 42 43 44 45 46 47 48 49 50
000
ASUS43 KBIS 201020
RWRBIS

NWR BROADCAST TEXT
NATIONAL WEATHER SERVICE BISMARCK ND
500 AM CDT SAT SEP 20 2014

NOTE: "FAIR" INDICATES FEW OR NO CLOUDS BELOW 12,000 FEET WITH NO
SIGNIFICANT WEATHER AND/OR OBSTRUCTIONS TO VISIBILITY.


CITY           SKY/WX    TMP DP  RH WIND       PRES   REMARKS
WILLISTON      CLOUDY    53  50  89 SW7       29.85S
MINOT          CLEAR     54  49  83 SW14      29.80S
MINOT AFB      CLEAR     52  52  97 SW9       29.79S
BISMARCK       MOCLDY    54  51  90 SW3       29.87R
DICKINSON      CLEAR     50  45  83 W7        29.89S
GARRISON         N/A     52  50  93 W5        29.84S
HETTINGER ARPT PTCLDY    52  46  80 NW8       29.94S
JAMESTOWN      CLEAR     55  53  93 CALM      29.82R
BEACH            N/A     54  48  82 W10       29.94R
CARRINGTON     FAIR      50  50 100 W9        29.82S
CROSBY         FAIR      55  55 100 SW10      29.82F
HARVEY         FAIR      48  48 100 SW9       29.81F
HAZEN          FAIR      48  46  93 W5        29.86F
LINTON         FAIR      50  50 100 CALM      29.87S
MANDAN         FAIR      54  50  87 W6        29.87F
OAKES            N/A     54  54 100 SW3       29.83R
RUGBY          FAIR      48  48 100 SW6       29.79F
STANLEY        FAIR      48  48 100 W7        29.84S
TIOGA          FAIR      46  46 100 W3        29.88R
WATFORD CITY   PTSUNNY   50  48  93 SW10      29.86R
$$

CITY           SKY/WX    TMP DP  RH WIND       PRES   REMARKS
GRAND FORKS    CLEAR     51  49  92 CALM      29.76R
GRAND FORKS AF CLEAR     51  51  99 NW5       29.77R
DEVILS LAKE    CLEAR     52  46  82 W6        29.77S
FARGO          CLEAR     53  51  93 NW7       29.78R
CANDO          FAIR      46  46 100 W6        29.78S FOG
CAVALIER       CLOUDY    54  54 100 W10       29.76S
GRAFTON        FAIR      50  50 100 NW7       29.76S
GWINNER        SUNNY     55  55 100 SW7       29.83R
LANGDON        FOG       45  43  93 SW3       29.76F VSB<1/4
ROLLA          PTSUNNY   48  48 100 SW6       29.78F
WALHALLA       CLOUDY    54  54 100 NW3       29.76S
$$

CITY           SKY/WX    TMP DP  RH WIND       PRES   REMARKS
ABERDEEN       CLEAR     55  53  93 NW6       29.85R
MOBRIDGE       CLEAR     54  52  93 N5        29.86S
BUFFALO          N/A     54  47  77 W10       29.92S
RAPID CITY     CLEAR     56  46  69 NW8       30.01R
GLASGOW        CLEAR     54  46  74 W8        29.90R
SIDNEY         PTCLDY    50  46  87 SW6       29.89S
WOLF POINT     CLEAR     51  48  89 W6        29.88S
MILES CITY     CLEAR     56  45  66 W8        29.99R
BAKER          CLEAR     54  46  74 W9        29.97R
$$

CITY           SKY/WX    TMP DP  RH WIND       PRES   REMARKS
BILLINGS       CLEAR     56  43  61 SW9       30.11R
GREAT FALLS    CLEAR     49  41  74 SW12      30.11R
REGINA         LGT RAIN  54  52  94 W10       29.86S
ESTEVAN        CLEAR     52  50  93 SW6       29.81S
$$




USA.gov is the U.S. government's official web portal to all federal, state and local government web resources and services.